DW5479 Weather Reports


time (UTC)temp
C
wind
direction
speed
KPH
gust
KPH
rain 1hr
cm
rain 24hr
cm
rain mn
cm
humidity
%
barometer
mb
20260506224507 27 156 8.0 17.7 0.00 0.00 0.00 74 1007.3
20260506223026 27 196 8.0 16.1 0.00 0.00 0.00 74 1007.0
20260506221542 27 178 6.4 16.1 0.00 0.00 0.00 75 1006.9
20260506220104 28 194 6.4 16.1 0.00 0.00 0.00 74 1006.9
20260506214522 28 149 8.0 19.3 0.00 0.00 0.00 74 1006.9
20260506213039 28 153 6.4 11.3 0.00 0.00 0.00 73 1006.7
20260506211608 28 137 1.6 8.0 0.00 0.00 0.00 69 1006.8
20260506210034 28 169 3.2 9.7 0.00 0.00 0.00 71 1007.0
20260506204549 28 124 4.8 11.3 0.00 0.00 0.00 69 1007.1
20260506203005 29 140 1.6 4.8 0.00 0.00 0.00 70 1007.3
20260506201520 29 176 3.2 8.0 0.00 0.00 0.00 69 1007.2
20260506200041 28 163 1.6 9.7 0.00 0.00 0.00 72 1007.3
20260506194557 28 160 3.2 9.7 0.00 0.00 0.00 72 1007.4
20260506193013 28 138 4.8 11.3 0.00 0.00 0.00 71 1007.6
20260506191534 28 164 1.6 8.0 0.00 0.00 0.00 75 1007.7
20260506190053 27 177 3.2 12.9 0.00 0.00 0.00 76 1007.9
20260506184506 27 185 1.6 12.9 0.00 0.00 0.00 77 1008.0
20260506183008 27 129 6.4 12.9 0.00 0.00 0.00 75 1008.3
20260506181527 28 158 3.2 8.0 0.00 0.00 0.00 77 1008.3
20260506180046 27 165 4.8 9.7 0.00 0.00 0.00 77 1008.6
20260506174600 27 162 1.6 9.7 0.00 0.00 0.00 81 1008.6
20260506173019 26 148 4.8 9.7 0.00 0.00 0.00 81 1008.8
20260506171529 26 151 4.8 11.3 0.00 0.00 0.00 83 1008.9
20260506170057 26 152 6.4 12.9 0.00 0.00 0.00 83 1008.9
20260506164515 26 185 4.8 11.3 0.00 0.00 0.00 85 1009.0
20260506163036 25 170 3.2 8.0 0.00 0.00 0.00 85 1009.0
20260506161642 25 136 1.6 4.8 0.00 0.00 0.00 85 1009.0
20260506160027 25 153 0.0 3.2 0.00 0.00 0.00 85 1008.7
20260506154550 25 141 0.0 1.6 0.00 0.00 0.00 86 1008.6
20260506153001 24 160 0.0 3.2 0.00 0.00 0.00 86 1008.3
20260506151517 24 152 0.0 3.2 0.00 0.00 0.00 86 1008.2
20260506150036 24 165 1.6 4.8 0.00 0.00 0.00 87 1007.9
20260506144549 24 179 1.6 4.8 0.00 0.00 0.00 87 1007.8
20260506143003 23 181 1.6 4.8 0.00 0.00 0.00 87 1007.7
20260506141520 23 172 4.8 8.0 0.00 0.00 0.00 87 1007.6
20260506140036 23 169 3.2 11.3 0.00 0.00 0.00 87 1007.0
20260506134602 23 179 4.8 14.5 0.00 0.00 0.00 87 1006.9
20260506133028 23 129 3.2 9.7 0.00 0.00 0.00 87 1006.9
20260506131551 22 153 3.2 8.0 0.00 0.00 0.00 87 1006.9
20260506130011 22 129 3.2 6.4 0.00 0.00 0.00 87 1006.9
20260506124543 22 149 0.0 4.8 0.00 0.00 0.00 87 1006.9
20260506123009 22 165 0.0 4.8 0.00 0.00 0.00 87 1006.7
20260506121523 22 160 1.6 4.8 0.00 0.00 0.00 87 1006.7
20260506120043 22 167 0.0 3.2 0.00 0.00 0.00 87 1006.6
20260506114559 22 173 0.0 4.8 0.00 0.00 0.00 87 1006.7
20260506113026 22 130 0.0 3.2 0.00 0.00 0.00 87 1006.6
20260506111554 22 145 1.6 9.7 0.00 0.00 0.00 87 1006.4
20260506110103 22 152 4.8 11.3 0.00 0.00 0.00 87 1006.3
20260506104517 22 165 4.8 9.7 0.00 0.00 0.00 87 1006.3
20260506103044 22 159 3.2 6.4 0.00 0.00 0.00 87 1006.3
20260506101600 23 168 1.6 8.0 0.00 0.00 0.00 87 1006.3
20260506100006 23 169 3.2 9.7 0.00 0.00 0.00 87 1006.3
20260506094525 23 160 3.2 9.7 0.00 0.00 0.00 86 1006.2
20260506093047 23 171 4.8 11.3 0.00 0.00 0.00 86 1006.1
20260506091559 23 172 3.2 8.0 0.00 0.00 0.00 86 1006.3
20260506090037 23 179 3.2 9.7 0.00 0.00 0.00 86 1006.4
20260506084623 23 168 6.4 14.5 0.00 0.00 0.00 86 1006.5
20260506083018 23 200 3.2 8.0 0.00 0.00 0.00 86 1006.6
20260506081546 23 159 3.2 9.7 0.00 0.00 0.00 86 1006.4
20260506073039 23 167 4.8 8.0 0.00 0.00 0.00 85 1006.6
20260506071545 23 140 4.8 16.1 0.00 0.00 0.00 85 1006.5
20260506061506 23 154 12.9 24.1 0.00 0.00 0.00 85 1006.7
20260506044653 23 187 6.4 17.7 0.00 0.00 0.00 86 1006.8
20260506043004 23 161 4.8 19.3 0.00 0.00 0.00 86 1006.8
20260506041517 24 153 6.4 12.9 0.00 0.00 0.00 85 1006.7
20260506040035 24 165 11.3 22.5 0.00 0.00 0.00 85 1006.4
20260506034622 24 171 9.7 16.1 0.00 0.00 0.00 85 1006.4
20260506033015 25 126 6.4 12.9 0.00 0.00 0.00 85 1006.4
20260506031540 25 155 3.2 14.5 0.00 0.00 0.00 84 1006.1
20260506030053 25 153 3.2 11.3 0.00 0.00 0.00 84 1005.9
20260506024504 25 183 6.4 11.3 0.00 0.00 0.00 84 1005.6
20260506023028 25 140 4.8 14.5 0.00 0.00 0.00 83 1005.4
20260506021544 25 148 3.2 14.5 0.00 0.00 0.00 83 1004.9
20260506014527 26 214 6.4 16.1 0.00 0.00 0.00 81 1004.7
20260506013052 26 137 9.7 16.1 0.00 0.00 0.00 80 1004.6
20260506011515 26 166 4.8 9.7 0.00 0.00 0.00 79 1004.4
20260506010025 27 168 4.8 14.5 0.00 0.00 0.00 78 1004.0
20260506004602 27 138 6.4 19.3 0.00 0.00 0.00 76 1003.8
20260506003113 28 177 4.8 14.5 0.00 0.00 0.00 74 1003.7
20260506001515 28 161 9.7 19.3 0.00 0.00 0.00 72 1003.7
20260506000033 28 146 3.2 9.7 0.00 0.00 0.00 70 1003.5
20260505234609 28 162 4.8 11.3 0.00 0.00 0.00 70 1003.3
20260505233043 29 139 8.0 16.1 0.00 0.00 0.00 68 1003.3
20260505231603 30 142 6.4 11.3 0.00 0.00 0.00 68 1003.3
20260505230015 30 153 4.8 12.9 0.00 0.00 0.00 68 1003.4